KLM955 EHAM-EGNT

Flight info

Callsign KLM955
Flight time 0h 54m
Altitude 34000
Route BERGI L60 SOPEK L989 BODSO Y70 BATLI Y250 RIMTO
Aircraft E190/M-SDE2E3FGIJ1RWY/HB1

Departure

Time 2026-04-29 12:11
Airport Amsterdam Airport Schiphol (EHAM)

Arrival

Time 2026-04-29 13:05
Airport Newcastle International Airport (EGNT)
Time Latitude Longitude Altitude Speed Heading
2026-04-29 11:40 52.30337 4.76024 -2 ft 0 kts 238°
2026-04-29 11:54 52.30346 4.76048 -2 ft 4 kts 230°
2026-04-29 11:55 52.30365 4.76075 -2 ft 4 kts 189°
2026-04-29 11:55 52.30381 4.76073 -2 ft 0 kts 146°
2026-04-29 11:59 52.30374 4.76081 -2 ft 4 kts 146°
2026-04-29 11:59 52.30325 4.76133 -2 ft 12 kts 146°
2026-04-29 11:59 52.30263 4.76198 -2 ft 9 kts 148°
2026-04-29 11:59 52.30203 4.76244 -2 ft 10 kts 180°
2026-04-29 12:00 52.30153 4.76154 -2 ft 12 kts 237°
2026-04-29 12:00 52.30104 4.76028 -2 ft 14 kts 238°
2026-04-29 12:00 52.30049 4.75879 -2 ft 16 kts 238°
2026-04-29 12:00 52.29985 4.75712 -2 ft 18 kts 237°
2026-04-29 12:01 52.29913 4.75527 -2 ft 20 kts 237°
2026-04-29 12:01 52.29840 4.75323 -2 ft 22 kts 250°
2026-04-29 12:01 52.29889 4.75107 -2 ft 22 kts 311°
2026-04-29 12:01 52.29994 4.74912 -2 ft 24 kts 312°
2026-04-29 12:02 52.30107 4.74714 3 ft 22 kts 313°
2026-04-29 12:02 52.30187 4.74558 9 ft 15 kts 310°
2026-04-29 12:02 52.30259 4.74417 10 ft 17 kts 310°
2026-04-29 12:02 52.30355 4.74242 -2 ft 24 kts 320°
2026-04-29 12:03 52.30520 4.74202 -2 ft 25 kts
2026-04-29 12:03 52.30695 4.74222 -2 ft 26 kts
2026-04-29 12:03 52.30878 4.74247 -2 ft 26 kts
2026-04-29 12:03 52.31064 4.74254 -2 ft 27 kts
2026-04-29 12:04 52.31254 4.74272 -2 ft 28 kts
2026-04-29 12:04 52.31448 4.74289 -2 ft 28 kts
2026-04-29 12:04 52.31646 4.74308 -2 ft 29 kts
2026-04-29 12:04 52.31827 4.74324 -2 ft 26 kts
2026-04-29 12:05 52.31999 4.74324 -2 ft 21 kts 336°
2026-04-29 12:05 52.32034 4.74134 -3 ft 18 kts 274°
2026-04-29 12:05 52.32043 4.73919 -3 ft 20 kts 272°
2026-04-29 12:05 52.32049 4.73686 -2 ft 21 kts 273°
2026-04-29 12:06 52.32064 4.73435 -2 ft 23 kts 288°
2026-04-29 12:06 52.32171 4.73239 -2 ft 24 kts 319°
2026-04-29 12:06 52.32301 4.73056 -2 ft 25 kts 320°
2026-04-29 12:06 52.32438 4.72865 -2 ft 26 kts 319°
2026-04-29 12:07 52.32580 4.72665 -2 ft 27 kts 319°
2026-04-29 12:07 52.32719 4.72444 -2 ft 28 kts 312°
2026-04-29 12:07 52.32852 4.72200 -2 ft 29 kts 311°
2026-04-29 12:07 52.32989 4.71946 -2 ft 30 kts 311°
2026-04-29 12:08 52.33127 4.71685 -2 ft 30 kts 303°
2026-04-29 12:08 52.33125 4.71453 -2 ft 14 kts 282°
2026-04-29 12:08 52.33188 4.71318 -2 ft 16 kts 311°
2026-04-29 12:08 52.33263 4.71182 -2 ft 13 kts 311°
2026-04-29 12:09 52.33293 4.71126 -3 ft 0 kts 311°
2026-04-29 12:09 52.33294 4.71123 -3 ft 1 kts 311°
2026-04-29 12:09 52.33308 4.71098 -3 ft 5 kts 311°
2026-04-29 12:09 52.33337 4.71044 -3 ft 8 kts 312°
2026-04-29 12:10 52.33394 4.70967 -4 ft 15 kts 334°
2026-04-29 12:10 52.33588 4.70959 -1 ft 57 kts
2026-04-29 12:10 52.34239 4.71018 -4 ft 130 kts
2026-04-29 12:10 52.35328 4.71085 365 ft 168 kts
2026-04-29 12:11 52.36510 4.71154 1343 ft 174 kts
2026-04-29 12:11 52.37764 4.71265 2055 ft 187 kts
2026-04-29 12:11 52.39114 4.71421 2720 ft 202 kts 10°
2026-04-29 12:11 52.40558 4.71595 3327 ft 215 kts
2026-04-29 12:12 52.42115 4.71673 4001 ft 236 kts
2026-04-29 12:12 52.43812 4.70770 4333 ft 280 kts 328°
2026-04-29 12:12 52.45269 4.68543 5249 ft 291 kts 318°
2026-04-29 12:12 52.46684 4.66117 6232 ft 296 kts 316°
2026-04-29 12:13 52.48091 4.63696 7229 ft 297 kts 317°
2026-04-29 12:13 52.49550 4.61289 8221 ft 297 kts 318°
2026-04-29 12:13 52.51020 4.58894 9193 ft 298 kts 319°
2026-04-29 12:13 52.52610 4.56734 10152 ft 296 kts 330°
2026-04-29 12:14 52.54427 4.54941 10734 ft 313 kts 335°
2026-04-29 12:14 52.56401 4.53211 11272 ft 330 kts 335°
2026-04-29 12:14 52.58455 4.51362 11945 ft 341 kts 335°
2026-04-29 12:14 52.60531 4.49438 12856 ft 343 kts 334°
2026-04-29 12:15 52.62614 4.47475 13774 ft 347 kts 334°
2026-04-29 12:15 52.64688 4.45514 14670 ft 350 kts 334°
2026-04-29 12:15 52.66812 4.43503 15581 ft 354 kts 334°
2026-04-29 12:15 52.68960 4.41476 16471 ft 357 kts 334°
2026-04-29 12:16 52.71129 4.39426 17290 ft 361 kts 334°
2026-04-29 12:16 52.73314 4.37341 18070 ft 366 kts 331°
2026-04-29 12:16 52.75238 4.34487 18719 ft 381 kts 309°
2026-04-29 12:16 52.76429 4.30490 19320 ft 395 kts 292°
2026-04-29 12:17 52.77286 4.26138 19999 ft 402 kts 290°
2026-04-29 12:17 52.78116 4.21770 20693 ft 406 kts 290°
2026-04-29 12:17 52.78996 4.17308 21330 ft 411 kts 291°
2026-04-29 12:17 52.79899 4.12810 21899 ft 416 kts 291°
2026-04-29 12:18 52.80813 4.08256 22482 ft 420 kts 291°
2026-04-29 12:18 52.81735 4.03654 23033 ft 423 kts 291°
2026-04-29 12:18 52.82662 3.99006 23567 ft 428 kts 290°
2026-04-29 12:18 52.83594 3.94305 24031 ft 433 kts 290°
2026-04-29 12:19 52.84531 3.89540 24544 ft 438 kts 290°
2026-04-29 12:19 52.85474 3.84725 25093 ft 441 kts 290°
2026-04-29 12:19 52.86411 3.79930 25586 ft 446 kts 290°
2026-04-29 12:19 52.87364 3.75018 26071 ft 450 kts 290°
2026-04-29 12:20 52.88319 3.70065 26571 ft 453 kts 290°
2026-04-29 12:20 52.89278 3.65066 27005 ft 457 kts 289°
2026-04-29 12:20 52.90237 3.60037 27439 ft 461 kts 289°
2026-04-29 12:20 52.91199 3.54958 27917 ft 462 kts 290°
2026-04-29 12:21 52.92159 3.49875 28387 ft 463 kts 290°
2026-04-29 12:21 52.93120 3.44759 28729 ft 467 kts 290°
2026-04-29 12:21 52.94084 3.39602 29074 ft 470 kts 290°
2026-04-29 12:21 52.95048 3.34412 29445 ft 472 kts 290°
2026-04-29 12:22 52.95995 3.29282 29897 ft 471 kts 290°
2026-04-29 12:22 52.96952 3.24081 30342 ft 471 kts 290°
2026-04-29 12:22 52.97902 3.18887 30817 ft 470 kts 290°
2026-04-29 12:22 52.98870 3.13722 31283 ft 468 kts 290°
2026-04-29 12:23 52.99856 3.08581 31700 ft 467 kts 290°
2026-04-29 12:23 53.00838 3.03460 32088 ft 466 kts 290°
2026-04-29 12:23 53.01818 2.98332 32453 ft 466 kts 290°
2026-04-29 12:23 53.02790 2.93206 32814 ft 464 kts 290°
2026-04-29 12:24 53.03754 2.88093 33152 ft 464 kts 290°
2026-04-29 12:24 53.04704 2.83040 33416 ft 465 kts 290°
2026-04-29 12:24 53.05666 2.77917 33724 ft 464 kts 290°
2026-04-29 12:24 53.06622 2.72802 34038 ft 462 kts 290°
2026-04-29 12:25 53.07573 2.67706 34407 ft 460 kts 290°
2026-04-29 12:25 53.08500 2.62721 34434 ft 446 kts 290°
2026-04-29 12:25 53.10228 2.53078 34397 ft 430 kts 284°
2026-04-29 12:26 53.10501 2.48113 34419 ft 436 kts 268°
2026-04-29 12:26 53.09343 2.38235 34446 ft 438 kts 256°
2026-04-29 12:27 53.07884 2.28379 34374 ft 438 kts 257°
2026-04-29 12:27 53.06502 2.18518 34387 ft 439 kts 257°
2026-04-29 12:28 53.05478 2.08547 34404 ft 437 kts 272°
2026-04-29 12:28 53.05824 2.03552 34420 ft 435 kts 283°
2026-04-29 12:28 53.06440 1.98702 34421 ft 435 kts 285°
2026-04-29 12:29 53.07745 1.88869 34402 ft 436 kts 283°
2026-04-29 12:29 53.08966 1.78994 34401 ft 436 kts 283°
2026-04-29 12:30 53.10154 1.69116 34402 ft 436 kts 283°
2026-04-29 12:30 53.11338 1.59222 34402 ft 436 kts 283°
2026-04-29 12:31 53.12505 1.49390 34407 ft 436 kts 283°
2026-04-29 12:31 53.13676 1.39488 34417 ft 436 kts 283°
2026-04-29 12:32 53.14838 1.29571 34412 ft 436 kts 282°
2026-04-29 12:32 53.15991 1.19647 34403 ft 436 kts 282°
2026-04-29 12:33 53.17130 1.09777 34406 ft 437 kts 282°
2026-04-29 12:33 53.18269 0.99820 34405 ft 437 kts 282°
2026-04-29 12:34 53.19399 0.89854 34403 ft 438 kts 282°
2026-04-29 12:34 53.20525 0.79884 34407 ft 437 kts 282°
2026-04-29 12:35 53.21636 0.69976 34405 ft 437 kts 282°
2026-04-29 12:35 53.22743 0.60007 34409 ft 437 kts 282°
2026-04-29 12:36 53.23817 0.50011 34417 ft 438 kts 281°
2026-04-29 12:36 53.24867 0.40005 34414 ft 437 kts 281°
2026-04-29 12:37 53.25938 0.30074 34413 ft 437 kts 282°
2026-04-29 12:37 53.27010 0.20066 34416 ft 438 kts 281°
2026-04-29 12:38 53.28069 0.10054 34414 ft 437 kts 281°
2026-04-29 12:38 53.29578 0.00282 34429 ft 434 kts 296°
2026-04-29 12:39 53.32252 -0.08816 34391 ft 441 kts 299°
2026-04-29 12:39 53.34999 -0.18013 34425 ft 447 kts 298°
2026-04-29 12:40 53.37739 -0.27368 34419 ft 448 kts 298°
2026-04-29 12:40 53.40463 -0.36733 34432 ft 446 kts 298°
2026-04-29 12:41 53.43155 -0.46091 34444 ft 446 kts 297°
2026-04-29 12:41 53.45842 -0.55477 34441 ft 446 kts 297°
2026-04-29 12:42 53.48501 -0.64799 34441 ft 445 kts 297°
2026-04-29 12:42 53.51169 -0.74176 34435 ft 445 kts 297°
2026-04-29 12:43 53.53826 -0.83562 34401 ft 444 kts 297°
2026-04-29 12:43 53.56475 -0.92939 34384 ft 444 kts 297°
2026-04-29 12:44 53.59092 -1.02240 34355 ft 443 kts 297°
2026-04-29 12:44 53.61346 -1.11886 34356 ft 445 kts 285°
2026-04-29 12:45 53.62723 -1.22061 34314 ft 445 kts 283°
2026-04-29 12:45 53.64290 -1.32100 34335 ft 442 kts 296°
2026-04-29 12:45 53.65862 -1.36497 34338 ft 436 kts 314°
2026-04-29 12:46 53.68054 -1.39818 34356 ft 425 kts 332°
2026-04-29 12:46 53.73145 -1.44822 34344 ft 423 kts 335°
2026-04-29 12:47 53.78211 -1.49863 34375 ft 423 kts 334°
2026-04-29 12:47 53.83244 -1.55000 34388 ft 422 kts 334°
2026-04-29 12:48 53.88268 -1.60149 34424 ft 422 kts 333°
2026-04-29 12:48 53.90780 -1.62731 34234 ft 425 kts 333°
2026-04-29 12:48 53.93327 -1.65347 32967 ft 441 kts 333°
2026-04-29 12:48 53.95990 -1.68083 31618 ft 453 kts 333°
2026-04-29 12:49 53.98713 -1.70889 30186 ft 464 kts 332°
2026-04-29 12:49 54.01500 -1.73774 28654 ft 474 kts 332°
2026-04-29 12:49 54.04346 -1.76724 26979 ft 484 kts 332°
2026-04-29 12:49 54.07188 -1.79681 25095 ft 473 kts 332°
2026-04-29 12:50 54.09967 -1.82564 23151 ft 462 kts 332°
2026-04-29 12:50 54.12703 -1.85284 21276 ft 447 kts 338°
2026-04-29 12:50 54.15645 -1.86608 19823 ft 433 kts
2026-04-29 12:50 54.18505 -1.86166 18967 ft 408 kts 18°
2026-04-29 12:51 54.21155 -1.84954 18770 ft 383 kts 20°
2026-04-29 12:51 54.23680 -1.83885 18467 ft 365 kts 18°
2026-04-29 12:51 54.26114 -1.83010 18213 ft 350 kts 17°
2026-04-29 12:51 54.28450 -1.82242 17967 ft 336 kts 16°
2026-04-29 12:52 54.30712 -1.81521 17715 ft 324 kts 16°
2026-04-29 12:52 54.32891 -1.80837 17488 ft 312 kts 17°
2026-04-29 12:52 54.34948 -1.80196 17555 ft 291 kts 17°
2026-04-29 12:52 54.36903 -1.79577 17136 ft 289 kts 17°
2026-04-29 12:53 54.38878 -1.78946 16743 ft 288 kts 17°
2026-04-29 12:53 54.40854 -1.78314 16212 ft 290 kts 17°
2026-04-29 12:53 54.42848 -1.77680 15692 ft 292 kts 17°
2026-04-29 12:53 54.44856 -1.77043 15118 ft 296 kts 17°
2026-04-29 12:54 54.46889 -1.76391 14451 ft 297 kts 17°
2026-04-29 12:54 54.48908 -1.75750 13835 ft 292 kts 17°
2026-04-29 12:54 54.50881 -1.75131 13242 ft 285 kts 16°
2026-04-29 12:54 54.52808 -1.74529 12714 ft 278 kts 17°
2026-04-29 12:55 54.54652 -1.73947 12276 ft 268 kts 17°
2026-04-29 12:55 54.56473 -1.73368 11874 ft 266 kts 17°
2026-04-29 12:55 54.58288 -1.72777 11509 ft 265 kts 17°
2026-04-29 12:55 54.60090 -1.72191 11165 ft 262 kts 16°
2026-04-29 12:56 54.61875 -1.71617 10815 ft 261 kts 16°
2026-04-29 12:56 54.63660 -1.71051 10465 ft 260 kts 16°
2026-04-29 12:56 54.65436 -1.70486 10129 ft 259 kts 16°
2026-04-29 12:56 54.67207 -1.69930 9750 ft 259 kts 15°
2026-04-29 12:57 54.68971 -1.69390 9442 ft 257 kts 11°
2026-04-29 12:57 54.70763 -1.69751 9067 ft 266 kts 343°
2026-04-29 12:57 54.72419 -1.71081 8765 ft 267 kts 336°
2026-04-29 12:57 54.74049 -1.72651 8367 ft 269 kts 334°
2026-04-29 12:58 54.75690 -1.74249 7838 ft 275 kts 335°
2026-04-29 12:58 54.77423 -1.75884 7148 ft 288 kts 334°
2026-04-29 12:58 54.79178 -1.77514 6764 ft 284 kts 335°
2026-04-29 12:58 54.80891 -1.79076 6363 ft 272 kts 335°
2026-04-29 12:59 54.82530 -1.80575 6022 ft 261 kts 335°
2026-04-29 12:59 54.83586 -1.81520 5790 ft 255 kts 336°
2026-04-29 12:59 54.85128 -1.82918 5502 ft 247 kts 335°
2026-04-29 12:59 54.87129 -1.84733 5047 ft 244 kts 335°
2026-04-29 13:00 54.88628 -1.86098 4766 ft 244 kts 335°
2026-04-29 13:00 54.89624 -1.87011 4555 ft 245 kts 335°
2026-04-29 13:00 54.91132 -1.88405 4228 ft 246 kts 335°
2026-04-29 13:00 54.92643 -1.89774 3849 ft 241 kts 335°
2026-04-29 13:01 54.94099 -1.91082 3540 ft 232 kts 335°
2026-04-29 13:01 54.95543 -1.92152 3263 ft 220 kts 352°
2026-04-29 13:01 54.96999 -1.91942 2967 ft 206 kts 28°
2026-04-29 13:01 54.98292 -1.89662 2554 ft 196 kts 64°
2026-04-29 13:02 54.98805 -1.87552 2379 ft 181 kts 69°
2026-04-29 13:02 54.99160 -1.86245 2219 ft 174 kts 65°
2026-04-29 13:02 54.99695 -1.84427 1998 ft 163 kts 66°
2026-04-29 13:02 55.00141 -1.82720 1787 ft 151 kts 68°
2026-04-29 13:03 55.00565 -1.81108 1605 ft 141 kts 67°
2026-04-29 13:03 55.00968 -1.79614 1398 ft 131 kts 68°
2026-04-29 13:03 55.01342 -1.78190 1256 ft 129 kts 67°
2026-04-29 13:03 55.01731 -1.76758 1079 ft 133 kts 68°
2026-04-29 13:04 55.02242 -1.74836 868 ft 131 kts 66°
2026-04-29 13:04 55.02510 -1.73857 747 ft 132 kts 66°
2026-04-29 13:04 55.02896 -1.72406 538 ft 132 kts 66°
2026-04-29 13:04 55.03279 -1.70949 354 ft 132 kts 66°
2026-04-29 13:05 55.03642 -1.69555 258 ft 114 kts 65°
2026-04-29 13:05 55.03898 -1.68582 248 ft 57 kts 65°
2026-04-29 13:05 55.04031 -1.68306 247 ft 16 kts 35°
2026-04-29 13:05 55.04056 -1.68275 247 ft 0 kts 34°
2026-04-29 13:06 55.04057 -1.68275 247 ft 0 kts 34°
2026-04-29 13:06 55.04073 -1.68256 247 ft 6 kts 34°
2026-04-29 13:06 55.04124 -1.68228 246 ft 10 kts 351°
2026-04-29 13:06 55.04142 -1.68338 247 ft 12 kts 252°
2026-04-29 13:07 55.04103 -1.68491 247 ft 16 kts 245°
2026-04-29 13:07 55.04053 -1.68683 248 ft 19 kts 245°
2026-04-29 13:07 55.03993 -1.68910 250 ft 21 kts 245°
2026-04-29 13:07 55.03929 -1.69146 252 ft 22 kts 244°
2026-04-29 13:08 55.03863 -1.69391 254 ft 23 kts 246°
2026-04-29 13:08 55.03807 -1.69653 256 ft 23 kts 255°
2026-04-29 13:08 55.03777 -1.69935 259 ft 24 kts 262°
2026-04-29 13:08 55.03777 -1.70225 263 ft 23 kts 275°
2026-04-29 13:09 55.03795 -1.70465 266 ft 17 kts 277°
2026-04-29 13:09 55.03804 -1.70599 266 ft 0 kts 273°
2026-04-29 13:09 55.03804 -1.70605 266 ft 2 kts 272°
2026-04-29 13:09 55.03804 -1.70641 266 ft 4 kts 271°
2026-04-29 13:10 55.03804 -1.70656 266 ft 0 kts 271°